Find Starlink 32499

NORAD ID: 61959 Int'l Des: 2024-210 Owner: SPXS Country: US Constellation: starlink operational
LEOCIRCULAR

Live-Position

3D-Globus wird geladen...

Über Starlink 32499

Beschreibung wird geladen...

Nächste Überflüge

Passes for default location (London). Set your location on the main map for personalized predictions.

Höhenverlauf

Loading altitude history...

Zweizeiliger Elementsatz

1 61959U 24210A 26125.30794510 .00036666 00000-0 13341-2 0 9995
2 61959 42.9974 219.6769 0000665 282.5023 77.5754 15.27609963 83583
Epoch: 5. Mai 2026 • Age: 5 hours

Aktueller Status

Höhe 484.0 km
Geschwindigkeit 7.63 km/s
Subsatellitenpunkt 31.64°N, 148.52°W
Startdatum 14. Nov. 2024
Alter 1.4 years
Typ internet

Technische Details

Klassifizierung Payload
Masse 730.00 kg
Trockenmasse 700.00 kg
Gesamtmasse 730.00 kg
Länge 0.30 m
Durchmesser 4.10 m
Spannweite 29.00 m
Form Box + pan
Hersteller SPXS
Bus-Typ Starlink V2M
Phasenstatus In Orbit
Besitzer/Staat SPXS/US

Most Searched